[[{"header":{"parameterUnit":"m.s-1","parameterCategory":2,"la1":30.2992,"la2":30.254,"lo1":-89.0895,"lo2":-89.0443,"dy":0.0025,"dx":0.0025,"nx":19,"ny":19,"refTime":"2026-04-02T09:00:00:Z","depth":"0","parameterNumber":2,"parameterNumberName":"U-component_of_CURRENTS"},"data":[0,0,0,0.0689,0.0688,0.0596,0.0595,0.05,0.05,0,0,0,0,0,0,0,0,0,0,0,0.0723,0.0723,0.0689,0.0688,0.0596,0.0595,0.0501,0.05,0,0,0,0,0,0,0,0,0,0,0,0.0723,0.0723,0.0723,0.0688,0.0596,0.0595,0.0501,0.0559,0,0,0,0,0,0,0,0,0,0,0.0643,0.0679,0.0723,0.0723,0.0687,0.0596,0.0595,0.0561,0.0555,0.0556,0,0.0558,0,0.0537,0.0496,0.0496,0,0,0,0.0665,0.0684,0.0664,0.0723,0.0687,0.0597,0.0631,0.0557,0.0551,0.0548,0.0557,0.0553,0.0535,0.0496,0.0496,0.0537,0.0538,0,0,0.067,0.0696,0.0669,0.0661,0.0685,0.0634,0.0628,0.0553,0.0554,0.0556,0.055,0.0534,0.0496,0.0495,0.0536,0.0537,0,0,0,0.07,0.07,0.0681,0.0665,0.0652,0.0632,0.0625,0.0556,0.0552,0.0549,0.0533,0.0495,0.0495,0.0535,0.0537,0.0639,0,0,0,0.0702,0.0719,0.0684,0.0697,0.0654,0.0601,0.0631,0.0557,0.0548,0.0533,0.0495,0.0494,0.0534,0.0536,0.0634,0.0664,0,0,0,0.0724,0.0721,0.0718,0.0699,0.067,0.0601,0.059,0.0554,0.0539,0.0496,0.0494,0.0534,0.0536,0.063,0.0657,0.0765,0,0,0,0.0741,0.0743,0.072,0.0717,0.0671,0.0639,0.059,0.0556,0.0525,0.0495,0.0534,0.0536,0.0628,0.0652,0.0759,0.0857,0.0889,0,0,0.075,0.0745,0.0742,0.0719,0.0699,0.0649,0.0653,0.0592,0.0561,0.0554,0.0554,0.0636,0.0656,0.0763,0.0976,0.1005,0,0,0,0.0749,0.0744,0.0735,0.072,0.0696,0.0693,0.0635,0.0644,0.0652,0.0556,0.0649,0.0659,0.0723,0.0772,0.0795,0.0865,0.0546,0.0546,0.0546,0.0762,0.0751,0.0746,0.0731,0.073,0.0724,0.0747,0.0755,0.0705,0.0749,0.0753,0.0915,0.0968,0.0986,0.1058,0.0773,0.0773,0.0774,0.0774,0.075,0.0736,0.0755,0.0745,0.0771,0.0785,0.0848,0.0856,0.0945,0.0868,0.0928,0.0889,0.1018,0.1085,0.0781,0.0779,0.0779,0.0778,0.0777,0.072,0.0718,0.0725,0.0742,0.0793,0.0829,0.0944,0.0987,0.1029,0.1093,0.1161,0.1159,0.121,0.1136,0.1137,0.1138,0.1138,0.1139,0.1139,0.0683,0.0694,0.0706,0.0737,0.0774,0.0862,0.1,0.11,0.1247,0.1279,0.128,0.1291,0.1025,0.1002,0.1149,0.1147,0.1146,0.1145,0.1144,0.0631,0.0654,0.0675,0.0706,0.0803,0.0906,0.1049,0.131,0.1434,0.1537,0.16,0.1395,0.1375,0.1356,0.134,0.1567,0.1567,0.1567,0.1567,0.0609,0.0615,0.0668,0.0723,0.0815,0.093,0.1158,0.1384,0.166,0.1787,0.1813,0.1758,0.1738,0.1733,0.1706,0.1694,0.2005,0.2006,0.2006,0.0594,0.062,0.0654,0.0714,0.0815,0.0966,0.1159,0.1403,0.1819,0.2026,0.1901,0.1883,0.1794,0.1756,0.1731,0.1687,0.1659,0,0]},{"header":{"parameterUnit":"m.s-1","parameterCategory":2,"la1":30.2992,"la2":30.254,"lo1":-89.0895,"lo2":-89.0443,"dy":0.0025,"dx":0.0025,"nx":19,"ny":19,"refTime":"2026-04-02T09:00:00:Z","depth":"0","parameterNumber":3,"parameterNumberName":"V-component_of_CURRENTS"},"data":[0,0,0,-0.0274,-0.0275,-0.027,-0.027,-0.0213,-0.0212,0,0,0,0,0,0,0,0,0,0,0,-0.027,-0.027,-0.0274,-0.0275,-0.027,-0.027,-0.0213,-0.0212,0,0,0,0,0,0,0,0,0,0,0,-0.027,-0.027,-0.027,-0.0275,-0.0271,-0.027,-0.0213,-0.0224,0,0,0,0,0,0,0,0,0,0,-0.0233,-0.0237,-0.027,-0.027,-0.0275,-0.0271,-0.027,-0.0225,-0.0224,-0.0206,0,-0.0216,0,-0.0223,-0.0209,-0.0209,0,0,0,-0.0256,-0.0238,-0.0249,-0.027,-0.0275,-0.0271,-0.0267,-0.0225,-0.0223,-0.0203,-0.0215,-0.0214,-0.0222,-0.0209,-0.0208,-0.0142,-0.0141,0,0,-0.0256,-0.0253,-0.025,-0.0248,-0.0287,-0.0267,-0.0267,-0.0224,-0.0219,-0.0215,-0.0213,-0.0221,-0.0208,-0.0208,-0.0142,-0.0142,0,0,0,-0.0269,-0.0253,-0.0265,-0.025,-0.0259,-0.0268,-0.0267,-0.0221,-0.0229,-0.0212,-0.022,-0.0208,-0.0207,-0.0142,-0.0142,-0.0119,0,0,0,-0.0269,-0.0263,-0.0265,-0.0261,-0.0261,-0.0246,-0.0265,-0.0231,-0.0227,-0.022,-0.0208,-0.0207,-0.0143,-0.0142,-0.0121,-0.0081,0,0,0,-0.0268,-0.0262,-0.0269,-0.0262,-0.0271,-0.0247,-0.0251,-0.0231,-0.0233,-0.0209,-0.0207,-0.0143,-0.0142,-0.0122,-0.0084,-0.0043,0,0,0,-0.0254,-0.0256,-0.0269,-0.0271,-0.0271,-0.0247,-0.0252,-0.0229,-0.0208,-0.0208,-0.0143,-0.0142,-0.0122,-0.0086,-0.0045,0.0008,0.0023,0,0,-0.0248,-0.0255,-0.0257,-0.0268,-0.0245,-0.0246,-0.0198,-0.0181,-0.0187,-0.0151,-0.015,-0.012,-0.0084,-0.0043,0.0057,0.007,0,0,0,-0.0248,-0.0245,-0.0241,-0.0235,-0.0225,-0.0174,-0.0168,-0.0162,-0.0138,-0.0176,-0.0109,-0.0086,-0.0061,-0.0034,-0.0024,-0.0073,-0.0138,-0.0138,-0.0138,-0.0196,-0.0208,-0.0187,-0.0183,-0.0161,-0.0124,-0.009,-0.0075,-0.0102,-0.0092,-0.0061,-0.0,0.0028,0.0037,-0.0015,-0.0069,-0.0069,-0.0069,-0.0068,-0.0158,-0.0146,-0.0138,-0.0126,-0.0083,-0.0041,-0.0,-0.0011,0.0022,-0.002,0.0002,-0.0003,0.005,-0.001,-0.0067,-0.0067,-0.0067,-0.0067,-0.0068,-0.0117,-0.0112,-0.0111,-0.0075,-0.0017,0.0018,0.0102,0.0096,0.0069,0.0088,0.0117,0.0117,0.006,0.0088,0.0088,0.0088,0.0089,0.0089,0.0089,-0.0074,-0.0071,-0.0042,-0.0016,0.0023,0.0095,0.016,0.0195,0.0205,0.0178,0.0178,0.0086,0.0048,0.0038,0.0095,0.0094,0.0093,0.0092,0.0092,-0.0035,-0.0033,0.0012,0.0046,0.0138,0.0246,0.0287,0.0368,0.0373,0.0386,0.0226,0.0226,0.0233,0.0225,0.0219,0.032,0.032,0.032,0.032,0.0002,0.0002,0.0077,0.0147,0.0247,0.0327,0.0496,0.0547,0.0447,0.0373,0.029,0.0241,0.0234,0.0237,0.0228,0.0221,0.032,0.0319,0.0319,0.004,0.0055,0.0122,0.0182,0.0294,0.043,0.0603,0.0728,0.053,0.031,0.0211,0.0211,0.0126,0.0119,0.0109,0.01,0.0082,0,0]}],[{"header":{"parameterUnit":"m.s-1","parameterCategory":2,"la1":30.2992,"la2":30.254,"lo1":-89.0895,"lo2":-89.0443,"dy":0.0025,"dx":0.0025,"nx":19,"ny":19,"refTime":"2026-04-02T09:00:00:Z","depth":"2","parameterNumber":2,"parameterNumberName":"U-component_of_CURRENTS"},"data":[0,0,0,0.0807,0.0806,0.0728,0.0727,0.0639,0.0639,0,0,0,0,0,0,0,0,0,0,0,0.0836,0.0836,0.0807,0.0806,0.0728,0.0727,0.0639,0.0639,0,0,0,0,0,0,0,0,0,0,0,0.0836,0.0836,0.0836,0.0806,0.0728,0.0727,0.0639,0.069,0,0,0,0,0,0,0,0,0,0,0.0763,0.0795,0.0836,0.0836,0.0806,0.0728,0.0727,0.0692,0.0687,0.0686,0,0.069,0,0.0672,0.0635,0.0635,0,0,0,0.0784,0.0799,0.0784,0.0836,0.0805,0.0728,0.0757,0.0689,0.0683,0.0679,0.0688,0.0685,0.0671,0.0635,0.0635,0.0676,0.0677,0,0,0.0788,0.0811,0.0788,0.0781,0.0807,0.0759,0.0755,0.0685,0.0686,0.0688,0.0682,0.0669,0.0635,0.0634,0.0675,0.0676,0,0,0,0.0816,0.0815,0.0799,0.0784,0.0775,0.0758,0.0752,0.0688,0.0686,0.0681,0.0668,0.0634,0.0634,0.0674,0.0675,0.0773,0,0,0,0.0817,0.0832,0.0802,0.0813,0.0777,0.0729,0.0757,0.069,0.0682,0.0669,0.0634,0.0633,0.0673,0.0675,0.0769,0.0797,0,0,0,0.0836,0.0834,0.0833,0.0815,0.0791,0.073,0.0721,0.0687,0.0675,0.0635,0.0633,0.0673,0.0675,0.0765,0.079,0.0896,0,0,0,0.085,0.0855,0.0833,0.0837,0.0792,0.0772,0.0721,0.0693,0.0664,0.0634,0.0673,0.0675,0.0763,0.0786,0.0891,0.0974,0.1004,0,0,0.0862,0.0857,0.0859,0.0838,0.0828,0.078,0.0791,0.0731,0.0698,0.0691,0.0691,0.077,0.079,0.0895,0.109,0.1116,0,0,0,0.0866,0.0864,0.0859,0.085,0.0833,0.083,0.0775,0.0784,0.0788,0.0695,0.0784,0.0793,0.0856,0.0896,0.0918,0.0685,0.0685,0.0684,0.0684,0.0878,0.0873,0.0875,0.0866,0.0868,0.0866,0.0888,0.0893,0.0843,0.0882,0.0884,0.1041,0.1085,0.1102,0.0903,0.0903,0.0904,0.0904,0.0904,0.0874,0.0865,0.0886,0.0884,0.0908,0.0923,0.0983,0.0989,0.1073,0.0996,0.1054,0.1009,0.1131,0.0912,0.0911,0.091,0.0909,0.0908,0.0908,0.0846,0.0846,0.0856,0.0877,0.0925,0.0958,0.1069,0.1111,0.1151,0.1215,0.1271,0.127,0.1104,0.1255,0.1255,0.1256,0.1257,0.1257,0.1257,0.0808,0.0823,0.0835,0.0869,0.0902,0.0984,0.1119,0.1217,0.1355,0.1384,0.1385,0.1159,0.1148,0.1125,0.1267,0.1265,0.1264,0.1263,0.1262,0.0762,0.0781,0.0803,0.0833,0.0927,0.1024,0.1164,0.1411,0.1533,0.1628,0.1501,0.1492,0.1472,0.1454,0.1438,0.1654,0.1654,0.1654,0.1654,0.0738,0.0745,0.0794,0.0847,0.0937,0.1048,0.1256,0.1435,0.1597,0.164,0.164,0.1558,0.1545,0.1521,0.1501,0.1482,0.171,0.1709,0.1709,0.0725,0.0749,0.0779,0.0837,0.0935,0.1081,0.1243,0.137,0.1558,0.17,0.1533,0.168,0.1556,0.1536,0.1489,0.1462,0.1427,0,0]},{"header":{"parameterUnit":"m.s-1","parameterCategory":2,"la1":30.2992,"la2":30.254,"lo1":-89.0895,"lo2":-89.0443,"dy":0.0025,"dx":0.0025,"nx":19,"ny":19,"refTime":"2026-04-02T09:00:00:Z","depth":"2","parameterNumber":3,"parameterNumberName":"V-component_of_CURRENTS"},"data":[0,0,0,-0.031,-0.0311,-0.0314,-0.0314,-0.0262,-0.0262,0,0,0,0,0,0,0,0,0,0,0,-0.0303,-0.0303,-0.031,-0.0311,-0.0314,-0.0314,-0.0262,-0.0262,0,0,0,0,0,0,0,0,0,0,0,-0.0302,-0.0303,-0.0303,-0.0311,-0.0314,-0.0314,-0.0262,-0.0269,0,0,0,0,0,0,0,0,0,0,-0.0271,-0.0272,-0.0303,-0.0303,-0.0311,-0.0314,-0.0314,-0.027,-0.0269,-0.025,0,-0.0262,0,-0.0271,-0.0259,-0.0259,0,0,0,-0.0292,-0.0273,-0.0286,-0.0303,-0.0311,-0.0314,-0.0307,-0.027,-0.0268,-0.0249,-0.0261,-0.026,-0.027,-0.0259,-0.0258,-0.0196,-0.0195,0,0,-0.0292,-0.0287,-0.0287,-0.0286,-0.0325,-0.0307,-0.0308,-0.0269,-0.0265,-0.0261,-0.0259,-0.0269,-0.0258,-0.0258,-0.0196,-0.0196,0,0,0,-0.0304,-0.0287,-0.0301,-0.0287,-0.0298,-0.0308,-0.0308,-0.0266,-0.0275,-0.0259,-0.0268,-0.0258,-0.0257,-0.0196,-0.0196,-0.0174,0,0,0,-0.0303,-0.0296,-0.0301,-0.0296,-0.0299,-0.0289,-0.0306,-0.0277,-0.0274,-0.0268,-0.0258,-0.0257,-0.0197,-0.0196,-0.0175,-0.0136,0,0,0,-0.03,-0.0295,-0.0303,-0.0296,-0.0309,-0.029,-0.0295,-0.0276,-0.028,-0.0259,-0.0257,-0.0197,-0.0196,-0.0176,-0.0139,-0.0096,0,0,0,-0.0285,-0.0291,-0.0302,-0.031,-0.0309,-0.0294,-0.0296,-0.0278,-0.0259,-0.0258,-0.0197,-0.0196,-0.0177,-0.0141,-0.0098,-0.0051,-0.0037,0,0,-0.0283,-0.029,-0.0295,-0.0306,-0.0292,-0.0291,-0.0251,-0.0234,-0.0238,-0.0203,-0.0202,-0.0175,-0.0139,-0.0097,-0.0004,0.0009,0,0,0,-0.0288,-0.0288,-0.0287,-0.0285,-0.0279,-0.023,-0.0225,-0.0218,-0.0192,-0.0229,-0.0164,-0.0141,-0.0116,-0.0092,-0.0082,-0.0192,-0.0192,-0.0192,-0.0192,-0.024,-0.0255,-0.0241,-0.0242,-0.0222,-0.0187,-0.0153,-0.0135,-0.0161,-0.0148,-0.0117,-0.0056,-0.0031,-0.0023,-0.0125,-0.0125,-0.0125,-0.0125,-0.0125,-0.0212,-0.0203,-0.0197,-0.0192,-0.0148,-0.0109,-0.0065,-0.0073,-0.0037,-0.0077,-0.0055,-0.0061,-0.001,-0.0123,-0.0123,-0.0124,-0.0124,-0.0124,-0.0124,-0.0174,-0.0171,-0.0173,-0.0142,-0.0085,-0.0048,0.0038,0.0034,0.001,0.003,0.0057,0.0057,-0.0028,0.0031,0.0032,0.0032,0.0032,0.0033,0.0033,-0.0132,-0.0133,-0.0106,-0.0084,-0.0044,0.0031,0.0098,0.0134,0.0145,0.0117,0.0117,-0.0003,-0.0008,-0.0018,0.0038,0.0037,0.0037,0.0036,0.0036,-0.0098,-0.0093,-0.0052,-0.0017,0.0074,0.0179,0.0224,0.0305,0.0311,0.0323,0.0169,0.0164,0.0171,0.0163,0.0157,0.0256,0.0256,0.0256,0.0256,-0.0061,-0.0061,0.0015,0.0085,0.0185,0.0259,0.0411,0.0433,0.0377,0.0312,0.031,0.0267,0.0257,0.0266,0.0255,0.025,0.0373,0.0373,0.0373,-0.0023,-0.0007,0.0062,0.0121,0.0232,0.0359,0.0495,0.0517,0.0414,0.0374,0.0297,0.027,0.0197,0.0186,0.0188,0.0175,0.0162,0,0]}],[{"header":{"parameterUnit":"m.s-1","parameterCategory":2,"la1":30.2992,"la2":30.254,"lo1":-89.0895,"lo2":-89.0443,"dy":0.0025,"dx":0.0025,"nx":19,"ny":19,"refTime":"2026-04-02T09:00:00:Z","depth":"4","parameterNumber":2,"parameterNumberName":"U-component_of_CURRENTS"},"data":[0,0,0,0.0867,0.0869,0.0998,0.0999,0.1169,0.117,0,0,0,0,0,0,0,0,0,0,0,0.0837,0.0838,0.0866,0.0869,0.0998,0.0999,0.1169,0.117,0,0,0,0,0,0,0,0,0,0,0,0.0837,0.0838,0.084,0.087,0.0998,0.0999,0.1168,0.1071,0,0,0,0,0,0,0,0,0,0,0.0946,0.0907,0.0838,0.084,0.087,0.0998,0.0999,0.1067,0.1077,0.1109,0,0.1141,0,0.1151,0.1181,0.1182,0,0,0,0.0876,0.0898,0.0939,0.084,0.0871,0.0998,0.0942,0.1073,0.1085,0.1123,0.1143,0.1149,0.1154,0.1182,0.1183,0.1361,0.1362,0,0,0.0869,0.0854,0.093,0.0947,0.0921,0.0938,0.0946,0.108,0.1096,0.1144,0.1153,0.1157,0.1183,0.1184,0.1361,0.1361,0,0,0,0.0844,0.0849,0.0887,0.094,0.0959,0.0941,0.0951,0.109,0.1105,0.1155,0.1159,0.1184,0.1186,0.136,0.1361,0.1378,0,0,0,0.084,0.0834,0.0884,0.0875,0.0956,0.1022,0.0958,0.1096,0.1111,0.1158,0.1184,0.1188,0.1359,0.136,0.1376,0.1354,0,0,0,0.0828,0.0832,0.0853,0.0874,0.0926,0.1021,0.1043,0.11,0.1113,0.1182,0.1188,0.1358,0.136,0.1374,0.1352,0.1362,0,0,0,0.0799,0.0836,0.0854,0.09,0.0924,0.1016,0.1042,0.1141,0.1206,0.1185,0.1359,0.1361,0.1373,0.1351,0.1361,0.1222,0,0,0,0.0824,0.0839,0.0865,0.0883,0.0952,0.0997,0.1072,0.1181,0.1239,0.1315,0.1319,0.1377,0.1352,0.1362,0.1329,0,0,0,0,0.0858,0.088,0.0905,0.0952,0.1016,0.1075,0.1163,0.1215,0.1336,0.1283,0.1408,0.1392,0.1397,0.1316,0.1369,0.1369,0.1369,0.1369,0.1369,0.0866,0.0898,0.0946,0.0997,0.1055,0.115,0.1208,0.1298,0.1355,0.1428,0.1431,0.1479,0.1398,0.1475,0.1475,0.1475,0.1475,0.1475,0.1475,0.0892,0.0914,0.0969,0.1026,0.1092,0.1167,0.1274,0.1333,0.143,0.1472,0.1478,0.1371,0.1478,0.1477,0.1477,0.1476,0.1476,0.1476,0.1476,0.0876,0.0891,0.0938,0.1019,0.1103,0.1187,0.1263,0.1358,0.1442,0.1469,0.1407,0.1486,0.1455,0.1503,0.1503,0.1503,0.1503,0.1503,0.1503,0.0834,0.0881,0.0924,0.1012,0.1062,0.115,0.1281,0.133,0.1425,0.1396,0.1492,0.1488,0.1487,0.1457,0.1503,0.1503,0.1503,0.1503,0.1503,0.0809,0.0834,0.089,0.0937,0.1039,0.1079,0.1207,0.1272,0.1312,0.1313,0.135,0.1358,0.1329,0.1332,0.1295,0.1294,0.1292,0.129,0,0.0783,0.08,0.0869,0.0919,0.0964,0.104,0.106,0.1138,0.121,0.1168,0.1319,0.1358,0.1363,0.133,0.1329,0.1285,0,0,0,0.0774,0.0797,0.0832,0.089,0.0927,0.0976,0.1063,0.1062,0.1184,0.12,0.1249,0.126,0.1431,0.1502,0.1476,0.1475,0.1425,0,0]},{"header":{"parameterUnit":"m.s-1","parameterCategory":2,"la1":30.2992,"la2":30.254,"lo1":-89.0895,"lo2":-89.0443,"dy":0.0025,"dx":0.0025,"nx":19,"ny":19,"refTime":"2026-04-02T09:00:00:Z","depth":"4","parameterNumber":3,"parameterNumberName":"V-component_of_CURRENTS"},"data":[0,0,0,-0.0088,-0.009,-0.0182,-0.0183,-0.0294,-0.0295,0,0,0,0,0,0,0,0,0,0,0,-0.0065,-0.0066,-0.0088,-0.009,-0.0182,-0.0183,-0.0294,-0.0295,0,0,0,0,0,0,0,0,0,0,0,-0.0064,-0.0065,-0.0066,-0.009,-0.0182,-0.0183,-0.0294,-0.0226,0,0,0,0,0,0,0,0,0,0,-0.0137,-0.0098,-0.0065,-0.0066,-0.0091,-0.0182,-0.0183,-0.0223,-0.0231,-0.025,0,-0.0273,0,-0.0283,-0.0302,-0.0303,0,0,0,-0.0092,-0.0092,-0.0134,-0.0067,-0.0092,-0.0182,-0.0141,-0.0227,-0.0236,-0.0259,-0.0275,-0.0279,-0.0285,-0.0303,-0.0304,-0.04,-0.04,0,0,-0.0087,-0.0064,-0.0128,-0.0139,-0.0128,-0.0138,-0.0144,-0.0232,-0.0236,-0.0275,-0.0281,-0.0286,-0.0304,-0.0305,-0.04,-0.04,0,0,0,-0.0071,-0.006,-0.01,-0.0135,-0.015,-0.0141,-0.0148,-0.0232,-0.0251,-0.0282,-0.0288,-0.0304,-0.0306,-0.0399,-0.04,-0.0371,0,0,0,-0.0068,-0.0051,-0.0098,-0.0082,-0.0149,-0.0188,-0.0145,-0.0245,-0.0255,-0.0287,-0.0304,-0.0307,-0.0399,-0.04,-0.0371,-0.0339,0,0,0,-0.0058,-0.0049,-0.0067,-0.0081,-0.0121,-0.0187,-0.021,-0.0247,-0.0258,-0.0303,-0.0307,-0.0399,-0.0399,-0.0372,-0.034,-0.029,0,0,0,-0.002,-0.0065,-0.0067,-0.0114,-0.0121,-0.0185,-0.021,-0.028,-0.0325,-0.0305,-0.0399,-0.04,-0.0372,-0.0341,-0.0292,-0.0213,0,0,0,-0.006,-0.0069,-0.0098,-0.0102,-0.0156,-0.0172,-0.0209,-0.0292,-0.0334,-0.0369,-0.0372,-0.0371,-0.034,-0.0291,-0.0252,0,0,0,0,-0.0099,-0.012,-0.0136,-0.0166,-0.0203,-0.0211,-0.0275,-0.0294,-0.0356,-0.0362,-0.0392,-0.0373,-0.0342,-0.0303,-0.0403,-0.0403,-0.0403,-0.0402,-0.0402,-0.012,-0.0142,-0.0176,-0.0202,-0.0226,-0.0257,-0.0268,-0.0305,-0.0353,-0.0382,-0.0366,-0.033,-0.0292,-0.0396,-0.0396,-0.0396,-0.0396,-0.0396,-0.0396,-0.0166,-0.0181,-0.0188,-0.0229,-0.0227,-0.0252,-0.0264,-0.0293,-0.0295,-0.035,-0.0322,-0.0298,-0.0394,-0.0394,-0.0394,-0.0395,-0.0395,-0.0395,-0.0395,-0.0167,-0.0174,-0.0198,-0.0222,-0.0228,-0.0237,-0.0202,-0.0235,-0.0266,-0.0252,-0.0205,-0.0296,-0.0276,-0.0246,-0.0246,-0.0246,-0.0245,-0.0245,-0.0245,-0.0152,-0.0175,-0.0179,-0.0204,-0.0198,-0.0182,-0.0168,-0.0142,-0.0171,-0.0148,-0.0243,-0.0278,-0.0283,-0.0268,-0.0239,-0.024,-0.0241,-0.0242,-0.0242,-0.0154,-0.015,-0.0151,-0.0146,-0.0122,-0.0099,-0.009,-0.0023,0.0018,0.0039,-0.0081,-0.0091,-0.0081,-0.009,-0.0068,0.0022,0.0023,0.0024,0,-0.013,-0.0137,-0.0107,-0.0079,-0.0033,-0.0039,0.006,0.0086,0.0064,0.0059,-0.0007,-0.0147,-0.0153,-0.0149,-0.0155,-0.0132,0,0,0,-0.0112,-0.0104,-0.0068,-0.0047,0.0007,0.0069,0.009,0.0122,0.0053,0.0132,0.0054,0.0046,-0.0114,-0.0223,-0.023,-0.0236,-0.0211,0,0]}]]